Weather History for St. Joseph, MO

Change the Weather History Date:

Saturday, December 15, 2012

  Actual Average Record
Temperature  
Mean Temperature 44 °F 29 °F  
Max Temperature 52 °F 39 °F 67 °F (2002)
Min Temperature 36 °F 19 °F -15 °F (1989)
Degree Days  
Heating Degree Days 21 36  
Month to date heating degree days 365 502  
Since 1 July heating degree days 1477 1613  
Cooling Degree Days 0 0  
Month to date cooling degree days 0 0  
Year to date cooling degree days 1565 1221  
Moisture  
Dew Point 42 °F    
Average Humidity 82    
Maximum Humidity 92    
Minimum Humidity 71    
Precipitation  
Precipitation 0.06 in 0.05 in 1.05 in (1940)
Month to date precipitation 0.40 0.75  
Year to date precipitation 22.71 34.83  
Sea Level Pressure  
Sea Level Pressure 29.59 in    
Wind  
Wind Speed 12 mph (SW)    
Max Wind Speed 23 mph    
Max Gust Speed 29 mph    
Visibility 10 miles    
Events Rain    
T = Trace of Precipitation, MM = Missing Value Source: NWS Daily Summary

Daily Weather History Graph

Daily Weather History Graph

Search for Another Location

Airport:

Trip Planner

Search our weather history database for the weather conditions in past years. The results will help you decide how hot, cold, wet, or windy it might be!

Date:

Astronomy

Dec. 15, 2012 Rise Set
Actual Time 7:34 AM CST 4:56 PM CST
Civil Twilight 7:03 AM CST 5:26 PM CST
Nautical Twilight 6:29 AM CST 6:00 PM CST
Astronomical Twilight 5:56 AM CST 6:33 PM CST
Moon 9:27 AM CST (12/15) 8:00 PM CST (12/15)
Length of Visible Light 10h 22m
Length of Day
9h 22m
Waxing Crescent, 8% of the Moon is Illuminated
Dec 15
Waxing Crescent
Dec 19
First Quarter
Dec 28
Full
Jan 4
Last Quarter
Jan 11
New

Hourly Weather History & Observations

Time (CST) Temp. Windchill Dew Point Humidity Pressure Visibility Wind Dir Wind Speed Gust Speed Precip Events Conditions
12:05 AM 44.6 °F 37.8 °F 42.8 °F 93% 29.69 in 3.0 mi SSE 15.0 mph - 0.08 in Rain Rain
12:53 AM 45.0 °F 36.9 °F 42.1 °F 90% 29.63 in 9.0 mi SSE 20.7 mph 28.8 mph 0.11 in Rain Light Rain
1:53 AM 45.0 °F 37.1 °F 41.0 °F 86% 29.60 in 10.0 mi SSE 19.6 mph - 0.01 in   Overcast
2:53 AM 45.0 °F 39.3 °F 42.1 °F 90% 29.60 in 10.0 mi SSE 11.5 mph - N/A   Overcast
3:53 AM 46.0 °F 40.6 °F 43.0 °F 89% 29.54 in 10.0 mi SE 11.5 mph - N/A   Overcast
4:26 AM 48.2 °F - 44.6 °F 87% 29.51 in 10.0 mi SSE 17.3 mph 23.0 mph N/A   Overcast
4:53 AM 48.0 °F - 44.1 °F 86% 29.49 in 10.0 mi SSE 15.0 mph - N/A   Overcast
5:44 AM 48.2 °F - 44.6 °F 87% 29.49 in 10.0 mi South 12.7 mph - 0.00 in   Overcast
5:53 AM 48.0 °F - 44.1 °F 86% 29.48 in 10.0 mi SSE 13.8 mph - 0.00 in   Overcast
6:28 AM 48.2 °F - 44.6 °F 87% 29.48 in 10.0 mi South 13.8 mph - N/A   Overcast
6:53 AM 48.9 °F - 44.1 °F 83% 29.49 in 10.0 mi South 11.5 mph - N/A   Overcast
7:53 AM 48.0 °F - 44.1 °F 86% 29.49 in 10.0 mi South 9.2 mph - N/A   Overcast
7:58 AM 48.2 °F - 44.6 °F 87% 29.49 in 10.0 mi South 9.2 mph - N/A   Overcast
8:53 AM 48.9 °F - 44.1 °F 83% 29.51 in 10.0 mi SSW 8.1 mph - N/A   Scattered Clouds
9:53 AM 51.1 °F - 44.1 °F 77% 29.52 in 10.0 mi SW 15.0 mph 18.4 mph N/A   Mostly Cloudy
10:12 AM 51.8 °F - 44.6 °F 76% 29.52 in 10.0 mi WSW 20.7 mph 25.3 mph N/A   Overcast
10:53 AM 51.1 °F - 44.1 °F 77% 29.54 in 10.0 mi West 16.1 mph 23.0 mph N/A   Mostly Cloudy
11:53 AM 52.0 °F - 44.1 °F 74% 29.56 in 10.0 mi West 13.8 mph - N/A   Overcast
12:53 PM 51.1 °F - 43.0 °F 74% 29.56 in 10.0 mi WNW 12.7 mph - N/A   Overcast
1:53 PM 51.1 °F - 44.1 °F 77% 29.57 in 10.0 mi West 10.4 mph - N/A   Overcast
2:53 PM 50.0 °F - 43.0 °F 77% 29.59 in 10.0 mi WSW 10.4 mph - N/A   Overcast
3:53 PM 48.9 °F - 42.1 °F 77% 29.63 in 10.0 mi West 11.5 mph - N/A   Overcast
4:53 PM 48.9 °F - 42.1 °F 77% 29.66 in 10.0 mi West 8.1 mph - N/A   Overcast
5:53 PM 48.0 °F - 41.0 °F 77% 29.67 in 10.0 mi West 11.5 mph - N/A   Overcast
6:53 PM 46.9 °F - 39.9 °F 77% 29.69 in 10.0 mi WNW 8.1 mph - N/A   Overcast
7:53 PM 45.0 °F 38.5 °F 39.0 °F 80% 29.70 in 10.0 mi WNW 13.8 mph - N/A   Overcast
8:53 PM 43.0 °F 37.7 °F 37.0 °F 80% 29.71 in 10.0 mi WNW 9.2 mph - N/A   Mostly Cloudy
9:04 PM 41.0 °F 35.8 °F 35.6 °F 81% 29.70 in 10.0 mi WNW 8.1 mph - N/A   Scattered Clouds
9:35 PM 42.8 °F 37.5 °F 35.6 °F 76% 29.71 in 9.0 mi WNW 9.2 mph - N/A   Mostly Cloudy
9:53 PM 41.0 °F 38.0 °F 36.0 °F 82% 29.72 in 9.0 mi West 4.6 mph - N/A   Overcast
10:53 PM 39.9 °F 36.7 °F 36.0 °F 86% 29.73 in 9.0 mi WNW 4.6 mph - N/A   Overcast
11:53 PM 37.0 °F 33.3 °F 34.0 °F 89% 29.75 in 7.0 mi WNW 4.6 mph - N/A   Clear